Location: Mercogliano
(40.9167°N, 14.7333°E)
Time: 04:20:46
(UTC+00:00)

SL-08 RB Rocket - Pass Details

Date: 18 September 2020
Orbit: 646 x 684 km, 97.8° (Epoch: 25 October)

Event Time Altitude Azimuth Distance (km) Brightness Sun altitude
Exits shadow 17:54:35 - 134° (SE) 2,231 5.9 -10.2°
Reaches altitude 10° 17:54:56 10° 132° (SE) 2,105 5.8 -10.3°
Maximum altitude 17:59:01 32° 70° (ENE) 1,144 4.5 -11.0°
Drops below altitude 10° 18:03:04 10° 7° (N) 2,097 6.3 -11.8°
Sets 18:05:28 0° 358° (N) 3,008 7.3 -12.2°
